Location: Slanting_Bridge
(35.6330°N, 80.9830°W)
Time: 03:45:01
(UTC-04:00)

Amateur Radio Satellites - All Passes

Search period start: 27 July 2016 03:15
Search period end: 28 July 2016 03:15
Location: Slanting_Bridge, 35.6330°N, 80.9830°W

Satellite Date Start Highest point End Downlink Frequencies (MHz)
Time Altitude Azimuth
KKS-1 27 Jul 03:16:49 03:18:22 12° 64° (ENE) 03:19:56 437.445
ITUPSAT 1 27 Jul 03:24:58 03:29:41 56° 259° (W) 03:34:25 437.325
ITAMSAT 1 27 Jul 03:25:58 03:29:57 22° 95° (E) 03:33:55 435.822/435.867
BEESAT 3 27 Jul 03:26:53 03:29:26 16° 50° (NE) 03:31:58 437.485
Oscar 19 27 Jul 03:30:54 03:35:44 41° 289° (WNW) 03:40:34 437.125/150
BEESAT 2 27 Jul 03:33:44 03:34:39 11° 46° (NE) 03:35:32 435.950
GONETS M04 27 Jul 03:44:09 03:53:00 84° 265° (W) 04:01:51
MOZHAYETS 4 27 Jul 03:46:24 03:50:17 27° 70° (ENE) 03:54:11
STARS 27 Jul 03:55:12 03:57:45 15° 66° (ENE) 04:00:19 437.465
ISS 27 Jul 03:58:52 04:01:13 18° 30° (NNE) 04:03:33 145.825
JUGNU 27 Jul 04:14:58 04:18:40 17° 180° (S) 04:22:21 437.505
SWISSCUBE 27 Jul 04:21:13 04:23:25 13° 268° (W) 04:25:38 437.505
PCSat 27 Jul 04:31:32 04:35:46 23° 52° (NE) 04:39:58 145.827
CUSAT 1 27 Jul 04:35:25 04:39:57 74° 278° (W) 04:43:25 437.405
Cosmos 2499 27 Jul 04:37:09 04:44:31 49° 270° (W) 04:51:24 435.465 / 435.565
SRMSAT 27 Jul 04:43:55 04:46:35 13° 169° (S) 04:49:16 437.500
Gurwin Techsat 1B 27 Jul 04:50:00 04:53:32 18° 295° (WNW) 04:57:03 435.225
KKS-1 27 Jul 04:50:03 04:54:23 58° 259° (W) 04:58:47 437.445
DANDE 27 Jul 04:54:03 05:00:04 61° 97° (E) 05:04:33 436.750
AO-7 27 Jul 04:55:35 05:03:51 61° 104° (ESE) 05:12:02 29.400- 29.500
BEESAT 3 27 Jul 05:03:33 05:07:16 39° 246° (WSW) 05:10:56 437.485
ITAMSAT 1 27 Jul 05:04:44 05:09:30 38° 290° (WNW) 05:14:14 435.822/435.867
CUBESAT XI-V 27 Jul 05:05:28 05:09:00 22° 69° (ENE) 05:12:33 437.345
BEESAT 2 27 Jul 05:08:56 05:12:55 71° 243° (WSW) 05:16:53 435.950
MOZHAYETS 4 27 Jul 05:23:34 05:27:21 25° 264° (W) 05:31:10
RS-15 27 Jul 05:25:05 05:30:36 15° 96° (E) 05:36:13 29.354- 29.394
STARS 27 Jul 05:29:34 05:33:43 42° 261° (W) 05:37:55 437.465
ISS 27 Jul 05:34:40 05:37:49 46° 226° (SW) 05:40:56 145.825
GONETS M04 27 Jul 05:44:35 05:48:24 14° 283° (WNW) 05:52:12
JUGNU 27 Jul 06:04:04 06:06:54 14° 190° (S) 06:09:45 437.505
HORYU 2 27 Jul 06:07:59 06:12:23 54° 100° (E) 06:16:44 437.375
PCSat 27 Jul 06:14:12 06:19:22 47° 249° (WSW) 06:24:30 145.827
Cubesat XI-IV 27 Jul 06:21:24 06:22:23 10° 90° (E) 06:23:22 437.490
O/OREOS (USA 219) 27 Jul 06:22:43 06:25:38 17° 59° (ENE) 06:28:32 437.305
SRMSAT 27 Jul 06:31:20 06:34:59 17° 180° (S) 06:38:38 437.500
STRAND 1 27 Jul 06:31:57 06:34:00 12° 63° (ENE) 06:36:04 437.568
BRITE-PL 27 Jul 06:32:24 06:36:38 28° 97° (E) 06:41:07 437.365/2234.400
DANDE 27 Jul 06:40:34 06:42:39 12° 284° (WNW) 06:44:34 436.750
CUBESAT XI-V 27 Jul 06:42:07 06:46:11 30° 263° (W) 06:50:16 437.345
CUTE-I 27 Jul 06:42:39 06:46:24 19° 94° (E) 06:50:08 437.470
AO-7 27 Jul 06:49:18 06:56:01 28° 301° (WNW) 07:02:43 29.400- 29.500
NOAA 15 27 Jul 07:02:21 07:07:19 41° 99° (E) 07:12:16 137.62
AIST 2 27 Jul 07:08:01 07:12:12 84° 240° (WSW) 07:16:22 435.215
NOAA 18 27 Jul 07:16:28 07:21:41 41° 99° (E) 07:26:51 137.9125
DOVE 4 27 Jul 07:29:29 07:33:36 23° 95° (E) 07:37:45 437.250
RS-15 27 Jul 07:29:32 07:40:51 78° 115° (ESE) 07:52:50 29.354- 29.394
GOMX 1 27 Jul 07:34:56 07:39:59 57° 100° (E) 07:45:16 467.674
HORYU 2 27 Jul 07:46:31 07:48:25 13° 295° (WNW) 07:50:19 437.375
LilacSat-2 27 Jul 07:50:49 07:54:40 67° 284° (WNW) 07:58:27 437.200
Cubesat XI-IV 27 Jul 07:57:37 08:02:58 78° 285° (WNW) 08:08:17 437.490
O/OREOS (USA 219) 27 Jul 08:00:55 08:05:12 42° 255° (WSW) 08:09:30 437.305
PRISM 27 Jul 08:06:06 08:07:05 11° 65° (ENE) 08:08:03 437.425
STRAND 1 27 Jul 08:07:23 08:12:31 72° 257° (WSW) 08:17:40 437.568
SO-50 27 Jul 08:07:45 08:12:13 37° 113° (ESE) 08:16:40 436.795
BRITE-PL 27 Jul 08:10:50 08:15:01 29° 289° (WNW) 08:19:28 437.365/2234.400
SRMSAT 27 Jul 08:20:32 08:23:23 14° 190° (S) 08:26:14 437.500
CUTE-I 27 Jul 08:21:33 08:26:37 45° 289° (WNW) 08:31:39 437.470
HO-68 27 Jul 08:28:55 08:34:52 27° 96° (E) 08:40:46 435.675
NOAA 15 27 Jul 08:42:51 08:46:46 22° 294° (WNW) 08:50:43 137.62
YUBILEINY 27 Jul 08:45:57 08:50:01 14° 77° (ENE) 08:54:05 435.215
CUBEBUG 2 27 Jul 08:51:55 08:53:28 11° 90° (E) 08:55:01 437.445
NOAA 18 27 Jul 08:57:44 09:02:03 24° 294° (WNW) 09:06:19 137.9125
AAUSAT CUBESAT 2 27 Jul 08:59:52 09:02:04 14° 93° (E) 09:04:14 437.432
CANX-2 27 Jul 09:00:52 09:04:57 48° 99° (E) 09:09:00 2200.000
DOVE 4 27 Jul 09:06:32 09:11:17 38° 288° (WNW) 09:16:08 437.250
Cosmos 2491 27 Jul 09:12:35 09:21:08 54° 79° (E) 09:29:39 435.465 / 435.565
CUTE 1.7 + AOD 2 27 Jul 09:14:14 09:18:24 62° 100° (E) 09:22:33 437.475
GOMX 1 27 Jul 09:14:34 09:17:37 16° 293° (WNW) 09:20:45 467.674
CINEMA 3 27 Jul 09:18:19 09:23:23 88° 101° (E) 09:28:21 145.822/145.860
PRISM 27 Jul 09:37:56 09:41:54 52° 260° (W) 09:45:53 437.425
RS-15 27 Jul 09:44:33 09:54:35 32° 319° (NW) 10:05:08 29.354- 29.394
ANTELSAT 27 Jul 09:48:19 09:50:45 14° 65° (ENE) 09:53:13 437.575/2403.000
SO-50 27 Jul 09:48:45 09:52:46 25° 309° (NW) 09:56:45 436.795
SEEDS 27 Jul 09:53:30 09:57:38 62° 284° (WNW) 10:01:43 437.485
UWE-3 27 Jul 10:03:44 10:08:14 51° 99° (E) 10:12:34 435.000/436.395/437.385
FUNcube-1 27 Jul 10:03:47 10:07:41 29° 96° (E) 10:11:28 145.935
ZACube-1 27 Jul 10:04:37 10:08:39 32° 97° (E) 10:12:34 437.345
COMPASS 1 27 Jul 10:05:18 10:09:24 65° 284° (WNW) 10:13:28 437.405
HO-68 27 Jul 10:15:53 10:22:45 50° 291° (WNW) 10:29:35 435.675
Cosmos 2504 27 Jul 10:25:34 10:32:14 25° 82° (E) 10:38:55 435.465 / 435.565
CUBEBUG 2 27 Jul 10:25:49 10:30:27 58° 285° (WNW) 10:34:57 437.445
M-CUBED/EXP-1 PRIME 27 Jul 10:27:38 10:30:41 17° 98° (E) 10:33:42 437.505
TIGRISAT 27 Jul 10:27:55 10:32:07 36° 72° (ENE) 10:36:24 435.000
AAUSAT CUBESAT 2 27 Jul 10:33:52 10:37:39 37° 287° (WNW) 10:41:26 437.432
YUBILEINY 27 Jul 10:36:37 10:45:23 87° 95° (E) 10:54:16 435.215
CANX-2 27 Jul 10:38:42 10:40:20 12° 294° (WNW) 10:41:59 2200.000
UNISAT 6 27 Jul 10:43:56 10:48:26 58° 75° (ENE) 10:53:03 437.425
Oscar 11 27 Jul 10:45:52 10:50:11 78° 283° (WNW) 10:54:28 145.826/435.025
AUBIESAT-1 27 Jul 10:53:01 10:56:55 26° 100° (E) 11:00:44 437.475
DELFI C3 27 Jul 10:56:06 10:59:58 55° 100° (E) 11:03:49 145.870
QB50P2 27 Jul 11:09:46 11:12:25 16° 67° (ENE) 11:15:05 145.880/145.840
Cosmos 2491 27 Jul 11:10:19 11:17:24 29° 276° (W) 11:24:31 435.465 / 435.565
POLYITAN 1 27 Jul 11:12:20 11:15:03 17° 67° (ENE) 11:17:47 437.675
HUMSAT D 27 Jul 11:18:40 11:22:42 45° 99° (E) 11:26:39 437.325/437.525
ANTELSAT 27 Jul 11:22:28 11:26:57 52° 260° (W) 11:31:32 437.575/2403.000
FUNcube-1 27 Jul 11:40:20 11:43:43 21° 291° (WNW) 11:47:01 145.935
ZACube-1 27 Jul 11:41:27 11:44:40 20° 292° (WNW) 11:47:50 437.345
UWE-3 27 Jul 11:41:54 11:44:09 14° 295° (WNW) 11:46:24 435.000/436.395/437.385
NANOSAT C BR1 27 Jul 11:53:52 11:57:54 47° 74° (ENE) 12:02:00 145.865
ESTCUBE 1 27 Jul 11:57:09 12:00:25 20° 95° (E) 12:03:39 437.505/2401.250
DUCHIFAT 1 27 Jul 11:58:04 12:02:08 49° 74° (ENE) 12:06:14 145.980
M-CUBED/EXP-1 PRIME 27 Jul 12:00:49 12:05:19 45° 292° (WNW) 12:09:46 437.505
TIGRISAT 27 Jul 12:05:36 12:08:52 19° 266° (W) 12:12:11 435.000
RS-15 27 Jul 12:06:48 12:12:50 15° 354° (N) 12:18:59 29.354- 29.394
BUGSAT 1 27 Jul 12:12:46 12:16:19 29° 71° (ENE) 12:19:54 437.445
VELOX 1 27 Jul 12:13:45 12:16:36 17° 94° (E) 12:19:25 145.980
CUBEBUG 1 27 Jul 12:14:21 12:17:35 20° 95° (E) 12:20:49 437.445
Cosmos 2504 27 Jul 12:16:06 12:24:50 66° 279° (W) 12:33:40 435.465 / 435.565
QB50P1 27 Jul 12:16:08 12:20:22 86° 253° (WSW) 12:24:39 145.935-145.965
50 SAT 27 Jul 12:18:10 12:20:29 16° 95° (E) 12:22:49 437.505
POPSAT HIP 1 27 Jul 12:22:36 12:26:50 73° 259° (W) 12:31:06 437.405
UNISAT 6 27 Jul 12:23:55 12:25:30 12° 269° (W) 12:27:05 437.425
AUBIESAT-1 27 Jul 12:27:15 12:31:15 29° 294° (WNW) 12:35:12 437.475
YUBILEINY 27 Jul 12:37:57 12:43:18 17° 294° (WNW) 12:48:42 435.215
JAS-2 27 Jul 12:43:41 12:49:42 55° 74° (ENE) 12:55:06 435.910
QB50P2 27 Jul 12:43:58 12:47:53 36° 262° (W) 12:51:51 145.880/145.840
POLYITAN 1 27 Jul 12:46:38 12:50:31 35° 262° (W) 12:54:29 437.675
HUMSAT D 27 Jul 12:56:04 12:57:52 13° 294° (WNW) 12:59:39 437.325/437.525
DX 1 27 Jul 12:56:48 13:00:52 36° 99° (E) 13:04:54 434.975-435.025
AISAT 27 Jul 12:57:19 13:01:44 57° 101° (E) 13:06:07 437.250
Oscar 19 27 Jul 13:06:44 13:10:37 22° 67° (ENE) 13:14:31 437.125/150
UKube-1 27 Jul 13:10:10 13:14:16 40° 99° (E) 13:18:20 .
NANOSAT C BR1 27 Jul 13:32:17 13:33:51 12° 268° (W) 13:35:27 145.865
ESTCUBE 1 27 Jul 13:33:15 13:37:14 32° 289° (WNW) 13:41:13 437.505/2401.250
DUCHIFAT 1 27 Jul 13:36:45 13:38:05 11° 268° (W) 13:39:23 145.980
AO-85 27 Jul 13:42:00 13:46:55 36° 113° (ESE) 13:51:42 145.980
SPROUT 27 Jul 13:43:02 13:47:22 86° 99° (E) 13:51:41 437.525
BUGSAT 1 27 Jul 13:48:56 13:51:41 18° 266° (W) 13:54:30 437.445
VELOX 1 27 Jul 13:49:03 13:53:09 37° 288° (WNW) 13:57:15 145.980
CUBEBUG 1 27 Jul 13:49:59 13:53:51 31° 289° (WNW) 13:57:44 437.445
50 SAT 27 Jul 13:51:11 13:54:05 23° 289° (WNW) 13:56:58 437.505
AO-7 27 Jul 14:05:03 14:08:02 12° 49° (NE) 14:11:01 29.400- 29.500
AIST 1 27 Jul 14:12:49 14:17:04 78° 277° (W) 14:21:20
Cosmos 2504 27 Jul 14:17:54 14:19:56 11° 299° (WNW) 14:21:58 435.465 / 435.565
RS-15 27 Jul 14:23:00 14:32:16 23° 31° (NNE) 14:41:28 29.354- 29.394
Gurwin Techsat 1B 27 Jul 14:26:54 14:32:08 60° 73° (ENE) 14:37:22 435.225
JAS-2 27 Jul 14:31:01 14:34:56 17° 265° (W) 14:38:38 435.910
DX 1 27 Jul 14:33:53 14:36:44 17° 293° (WNW) 14:39:36 434.975-435.025
AISAT 27 Jul 14:35:59 14:37:40 12° 295° (WNW) 14:39:22 437.250
TISAT 1 27 Jul 14:37:45 14:42:01 80° 102° (ESE) 14:46:16 437.305
ITAMSAT 1 27 Jul 14:41:03 14:45:19 26° 68° (ENE) 14:49:37 435.822/435.867
SWISSCUBE 27 Jul 14:44:56 14:48:04 17° 94° (E) 14:51:12 437.505
Oscar 19 27 Jul 14:44:57 14:49:40 37° 262° (W) 14:54:25 437.125/150
UKube-1 27 Jul 14:47:24 14:49:56 15° 294° (WNW) 14:52:28 .
GONETS M04 27 Jul 14:47:40 14:53:51 22° 82° (E) 15:00:03
BEESAT 27 Jul 15:05:35 15:09:35 26° 96° (E) 15:13:32 436.000
CUSAT 1 27 Jul 15:10:09 15:13:06 37° 81° (E) 15:16:46 437.405
Cosmos 2499 27 Jul 15:16:49 15:23:45 27° 83° (E) 15:30:36 435.465 / 435.565
AO-85 27 Jul 15:22:45 15:27:25 29° 307° (NW) 15:31:56 145.980
ITUPSAT 1 27 Jul 15:28:25 15:33:00 46° 100° (E) 15:37:32 437.325
DANDE 27 Jul 15:36:29 15:38:13 16° 78° (ENE) 15:40:06 436.750
AO-7 27 Jul 15:50:57 15:59:09 64° 69° (ENE) 16:07:25 29.400- 29.500
Gurwin Techsat 1B 27 Jul 16:09:41 16:12:25 14° 268° (W) 16:15:10 435.225
ITAMSAT 1 27 Jul 16:19:56 16:24:36 33° 262° (W) 16:29:19 435.822/435.867
SWISSCUBE 27 Jul 16:21:33 16:26:00 40° 288° (WNW) 16:30:25 437.505
RS-15 27 Jul 16:35:07 16:47:31 71° 58° (ENE) 16:59:38 29.354- 29.394
GONETS M04 27 Jul 16:41:11 16:49:47 67° 279° (W) 16:58:29
SO-50 27 Jul 16:42:54 16:45:49 16° 47° (NE) 16:48:41 436.795
BEESAT 27 Jul 16:43:16 16:47:15 27° 291° (WNW) 16:51:14 436.000
KKS-1 27 Jul 16:44:02 16:48:05 32° 98° (E) 16:52:06 437.445
PHONESAT 2.4 27 Jul 16:57:39 17:00:31 38° 151° (SSE) 17:03:25 2401.200-2431.200
HORYU 2 27 Jul 17:03:05 17:07:08 35° 71° (ENE) 17:11:13 437.375
ITUPSAT 1 27 Jul 17:07:28 17:10:25 17° 294° (WNW) 17:13:21 437.325
Cosmos 2499 27 Jul 17:07:28 17:16:13 61° 280° (W) 17:24:51 435.465 / 435.565
MOZHAYETS 4 27 Jul 17:20:29 17:25:04 85° 285° (WNW) 17:29:37
STARS 27 Jul 17:21:40 17:25:53 41° 99° (E) 17:30:04 437.465
Cubesat XI-IV 27 Jul 17:39:28 17:42:27 15° 63° (ENE) 17:45:26 437.490
BRITE-PL 27 Jul 17:42:02 17:44:56 19° 69° (ENE) 17:47:50 437.365/2234.400
AO-7 27 Jul 17:45:51 17:52:20 25° 264° (W) 17:58:54 29.400- 29.500
CUTE-I 27 Jul 18:01:28 18:05:46 25° 67° (ENE) 18:10:04 437.470
NOAA 15 27 Jul 18:19:28 18:24:31 49° 72° (ENE) 18:29:34 137.62
KKS-1 27 Jul 18:21:07 18:24:24 20° 292° (WNW) 18:27:40 437.445
SO-50 27 Jul 18:22:09 18:26:38 54° 244° (WSW) 18:30:59 436.795
LilacSat-2 27 Jul 18:29:44 18:33:17 36° 74° (ENE) 18:36:52 437.200
DOVE 4 27 Jul 18:33:55 18:36:03 14° 65° (ENE) 18:38:14 437.250
PHONESAT 2.4 27 Jul 18:34:02 18:37:01 45° 346° (NNW) 18:40:00 2401.200-2431.200
NOAA 18 27 Jul 18:39:40 18:45:04 59° 73° (ENE) 18:50:32 137.9125
HORYU 2 27 Jul 18:40:39 18:43:45 18° 265° (W) 18:46:51 437.375
CUBESAT XI-V 27 Jul 18:40:47 18:45:25 81° 102° (ESE) 18:50:03 437.345
GOMX 1 27 Jul 18:41:05 18:44:54 37° 72° (ENE) 18:48:52 467.674
GONETS M04 27 Jul 18:47:26 18:48:23 10° 299° (WNW) 18:49:19
RS-15 27 Jul 18:48:56 18:58:58 31° 257° (WSW) 19:08:52 29.354- 29.394
BEESAT 3 27 Jul 18:50:50 18:54:42 68° 117° (ESE) 18:58:37 437.485
HO-68 27 Jul 18:56:45 19:00:43 16° 57° (ENE) 19:04:41 435.675
BEESAT 2 27 Jul 18:58:01 19:01:42 39° 114° (ESE) 19:05:25 435.950
STARS 27 Jul 18:59:11 19:01:51 16° 294° (WNW) 19:04:31 437.465
PCSat 27 Jul 19:09:51 19:14:40 34° 109° (ESE) 19:19:32 145.827
Cubesat XI-IV 27 Jul 19:16:37 19:21:56 63° 258° (WSW) 19:27:17 437.490
BRITE-PL 27 Jul 19:19:41 19:23:16 27° 263° (W) 19:26:50 437.365/2234.400
CUTE-I 27 Jul 19:40:39 19:45:34 37° 262° (W) 19:50:31 437.470
CANX-2 27 Jul 19:51:03 19:54:30 24° 70° (ENE) 19:57:57 2200.000
NOAA 15 27 Jul 20:01:10 20:04:30 17° 266° (W) 20:07:53 137.62
CUTE 1.7 + AOD 2 27 Jul 20:04:05 20:07:47 30° 72° (ENE) 20:11:30 437.475
LilacSat-2 27 Jul 20:05:57 20:07:43 13° 267° (W) 20:09:28 437.200
DOVE 4 27 Jul 20:09:12 20:13:16 45° 262° (W) 20:17:33 437.250
PHONESAT 2.4 27 Jul 20:11:04 20:13:53 31° 3° (N) 20:16:41 2401.200-2431.200
CINEMA 3 27 Jul 20:16:46 20:21:07 54° 74° (ENE) 20:25:43 145.822/145.860
STRAND 1 27 Jul 20:20:59 20:25:56 49° 100° (E) 20:30:50 437.568
GOMX 1 27 Jul 20:21:01 20:23:12 14° 268° (W) 20:25:26 467.674
NOAA 18 27 Jul 20:22:53 20:26:04 16° 267° (W) 20:29:17 137.9125
O/OREOS (USA 219) 27 Jul 20:31:22 20:35:14 30° 103° (ESE) 20:39:08 437.305
BEESAT 3 27 Jul 20:31:57 20:32:49 11° 314° (NW) 20:33:41 437.485
ISS 27 Jul 20:36:16 20:38:44 20° 130° (SE) 20:41:14 145.825
BEESAT 2 27 Jul 20:37:09 20:39:41 16° 310° (NW) 20:42:13 435.950
HO-68 27 Jul 20:40:14 20:47:26 90° 252° (WSW) 20:54:40 435.675
SEEDS 27 Jul 20:41:49 20:45:59 58° 75° (ENE) 20:50:07 437.485
YUBILEINY 27 Jul 20:51:01 20:59:04 37° 75° (ENE) 21:07:01 435.215
COMPASS 1 27 Jul 20:52:43 20:56:47 53° 75° (ENE) 21:00:52 437.405
PCSat 27 Jul 20:53:22 20:58:03 29° 305° (NW) 21:02:46 145.827
FUNcube-1 27 Jul 20:56:56 20:59:55 18° 67° (ENE) 21:02:56 145.935
UWE-3 27 Jul 20:57:40 21:01:36 30° 71° (ENE) 21:05:37 435.000/436.395/437.385
ZACube-1 27 Jul 20:57:55 21:01:07 19° 68° (ENE) 21:04:22 437.345
AIST 2 27 Jul 21:02:44 21:06:34 40° 114° (ESE) 21:10:25 435.215
M-CUBED/EXP-1 PRIME 27 Jul 21:13:17 21:14:16 11° 58° (ENE) 21:15:14 437.505
CUBEBUG 2 27 Jul 21:20:10 21:24:43 80° 76° (ENE) 21:29:26 437.445
AAUSAT CUBESAT 2 27 Jul 21:20:24 21:24:34 88° 258° (WSW) 21:28:44 437.432
PRISM 27 Jul 21:22:39 21:26:01 24° 97° (E) 21:29:23 437.425
CANX-2 27 Jul 21:26:47 21:30:15 24° 264° (W) 21:33:43 2200.000
AUBIESAT-1 27 Jul 21:37:08 21:39:42 17° 62° (ENE) 21:42:22 437.475
Oscar 11 27 Jul 21:37:19 21:41:33 53° 75° (ENE) 21:45:48 145.826/435.025
DELFI C3 27 Jul 21:39:39 21:42:42 21° 70° (ENE) 21:45:44 145.870
CUTE 1.7 + AOD 2 27 Jul 21:40:32 21:43:37 19° 266° (W) 21:46:43 437.475
PHONESAT 2.4 27 Jul 21:47:35 21:50:39 69° 19° (NNE) 21:53:43 2401.200-2431.200
CINEMA 3 27 Jul 21:56:59 21:58:38 12° 270° (W) 22:00:18 145.822/145.860
STRAND 1 27 Jul 22:01:22 22:04:41 18° 295° (WNW) 22:07:59 437.568
HUMSAT D 27 Jul 22:07:17 22:10:40 23° 70° (ENE) 22:14:04 437.325/437.525
Cosmos 2491 27 Jul 22:09:36 22:18:13 69° 92° (E) 22:26:50 435.465 / 435.565
O/OREOS (USA 219) 27 Jul 22:11:12 22:14:37 21° 299° (WNW) 22:18:05 437.305
ISS 27 Jul 22:12:05 22:15:01 31° 325° (NW) 22:17:59 145.825
Cosmos 2504 27 Jul 22:13:40 22:21:08 40° 75° (ENE) 22:28:04 435.465 / 435.565
AO-85 27 Jul 22:18:30 22:20:31 13° 44° (NE) 22:22:28 145.980
FUNcube-1 27 Jul 22:31:36 22:35:48 39° 262° (W) 22:40:06 145.935
HO-68 27 Jul 22:32:53 22:35:55 13° 270° (W) 22:38:58 435.675
ZACube-1 27 Jul 22:32:58 22:37:06 35° 263° (W) 22:41:19 437.345
UWE-3 27 Jul 22:34:26 22:38:01 23° 266° (W) 22:41:41 435.000/436.395/437.385
UNISAT 6 27 Jul 22:40:09 22:42:54 16° 92° (E) 22:45:36 437.425
AIST 2 27 Jul 22:42:27 22:45:12 17° 310° (NW) 22:47:58 435.215
M-CUBED/EXP-1 PRIME 27 Jul 22:44:36 22:48:11 52° 255° (WSW) 22:52:07 437.505
YUBILEINY 27 Jul 22:47:43 22:55:49 43° 272° (W) 23:03:53 435.215
ESTCUBE 1 27 Jul 22:55:04 22:57:15 14° 66° (ENE) 22:59:26 437.505/2401.250
PRISM 27 Jul 22:58:01 23:01:11 22° 291° (WNW) 23:04:22 437.425
CUBEBUG 1 27 Jul 23:09:15 23:10:49 12° 65° (ENE) 23:12:22 437.445
VELOX 1 27 Jul 23:10:22 23:11:19 11° 64° (ENE) 23:12:17 145.980
AUBIESAT-1 27 Jul 23:10:32 23:13:52 30° 259° (W) 23:17:27 437.475
DELFI C3 27 Jul 23:14:13 23:17:24 23° 264° (W) 23:20:36 145.870
Oscar 11 27 Jul 23:16:47 23:17:57 11° 269° (W) 23:19:07 145.826/435.025
ANTELSAT 27 Jul 23:17:17 23:21:39 41° 98° (E) 23:25:54 437.575/2403.000
PHONESAT 2.4 27 Jul 23:24:35 23:26:57 20° 214° (SSW) 23:29:18 2401.200-2431.200
HUMSAT D 27 Jul 23:42:32 23:46:08 26° 264° (W) 23:49:45 437.325/437.525
DX 1 27 Jul 23:49:57 23:53:18 22° 69° (ENE) 23:56:40 434.975-435.025
AISAT 27 Jul 23:51:54 23:55:51 34° 72° (ENE) 23:59:50 437.250
AO-85 27 Jul 23:57:15 00:01:27 60° 244° (WSW) 00:05:21 145.980
TIGRISAT 27 Jul 23:58:37 00:03:14 70° 284° (WNW) 00:07:42 435.000
UKube-1 28 Jul 00:02:14 00:05:40 24° 69° (ENE) 00:09:08 .
QB50P1 28 Jul 00:04:43 00:07:47 19° 95° (E) 00:10:50 145.935-145.965
Cosmos 2504 28 Jul 00:07:17 00:14:16 34° 274° (W) 00:20:51 435.465 / 435.565
Cosmos 2491 28 Jul 00:09:17 00:15:43 23° 291° (WNW) 00:22:12 435.465 / 435.565
POPSAT HIP 1 28 Jul 00:10:59 00:14:21 22° 95° (E) 00:17:42 437.405
UNISAT 6 28 Jul 00:15:26 00:19:47 42° 287° (WNW) 00:24:02 437.425
AIST 1 28 Jul 00:23:37 00:26:42 19° 75° (ENE) 00:29:49
50 SAT 28 Jul 00:24:48 00:28:29 89° 80° (E) 00:32:09 437.505
ESTCUBE 1 28 Jul 00:29:14 00:33:36 50° 260° (W) 00:37:58 437.505/2401.250
QB50P2 28 Jul 00:31:31 00:35:37 42° 99° (E) 00:39:40 145.880/145.840
SPROUT 28 Jul 00:33:31 00:37:33 42° 73° (ENE) 00:41:36 437.525
POLYITAN 1 28 Jul 00:34:09 00:38:16 43° 99° (E) 00:42:20 437.675
CUBEBUG 1 28 Jul 00:42:23 00:46:35 53° 260° (W) 00:50:50 437.445
VELOX 1 28 Jul 00:42:53 00:47:13 62° 259° (W) 00:51:34 145.980
ANTELSAT 28 Jul 00:55:02 00:57:58 17° 294° (WNW) 01:00:52 437.575/2403.000
NANOSAT C BR1 28 Jul 01:16:34 01:20:47 60° 285° (WNW) 01:24:57 145.865
DUCHIFAT 1 28 Jul 01:20:30 01:24:41 57° 285° (WNW) 01:28:51 145.980
DX 1 28 Jul 01:25:40 01:29:20 27° 263° (W) 01:33:01 434.975-435.025
TISAT 1 28 Jul 01:26:26 01:30:18 38° 73° (ENE) 01:34:14 437.305
AISAT 28 Jul 01:29:27 01:32:23 18° 266° (W) 01:35:21 437.250
BUGSAT 1 28 Jul 01:31:54 01:36:11 80° 102° (ESE) 01:40:25 437.445
UKube-1 28 Jul 01:38:05 01:41:35 25° 263° (W) 01:45:08 .
JAS-2 28 Jul 01:39:39 01:44:59 61° 102° (ESE) 01:50:50 435.910
QB50P1 28 Jul 01:39:48 01:43:33 30° 289° (WNW) 01:47:18 145.935-145.965
POPSAT HIP 1 28 Jul 01:46:29 01:50:03 26° 290° (WNW) 01:53:37 437.405
SWISSCUBE 28 Jul 01:49:11 01:51:59 16° 65° (ENE) 01:54:47 437.505
AIST 1 28 Jul 02:00:32 02:04:19 29° 269° (W) 02:08:05
QB50P2 28 Jul 02:08:42 02:11:01 14° 293° (WNW) 02:13:19 145.880/145.840
BEESAT 28 Jul 02:09:25 02:13:07 23° 68° (ENE) 02:16:50 436.000
POLYITAN 1 28 Jul 02:11:24 02:13:39 14° 294° (WNW) 02:15:53 437.675
SPROUT 28 Jul 02:11:35 02:13:40 13° 267° (W) 02:15:46 437.525
JUGNU 28 Jul 02:12:15 02:15:17 14° 171° (S) 02:18:18 437.505
ITUPSAT 1 28 Jul 02:32:12 02:36:38 38° 72° (ENE) 02:41:05 437.325
Gurwin Techsat 1B 28 Jul 02:46:31 02:51:09 30° 97° (E) 02:55:46 435.225
GONETS M04 28 Jul 02:55:00 03:03:37 55° 79° (E) 03:12:13
Oscar 19 28 Jul 02:58:52 03:04:04 86° 285° (WNW) 03:09:15 437.125/150
ITAMSAT 1 28 Jul 02:59:17 03:00:21 11° 91° (E) 03:01:25 435.822/435.867
TISAT 1 28 Jul 03:03:47 03:06:05 14° 267° (W) 03:08:24 437.305
ISS 28 Jul 03:06:45 03:08:01 12° 24° (NNE) 03:09:17 145.825
